Theta_e
327 327 328 328 326 325 327 326 325 325 325 323 323 320 316 315 315 314 313 312 308 307 307 306 306 305 305 314 314 315 315 311 316 315 316 316 317 317 319 319 318 319 318 317 316 316 315
327 327 327 326 326 326 327 325 325 325 324 323 319 314 310 310 308 307 306 305 305 305 305 305 305 304 311 313 313 313 313 313 315 315 315 315 314 314 314 317 318 317 316 316 316 316 316
327 327 326 326 325 326 326 324 325 323 323 321 316 311 307 306 305 305 305 305 305 305 305 305 304 305 312 311 313 314 313 314 315 314 314 315 313 313 314 316 316 315 315 315 316 316 316
325 324 325 326 325 325 324 323 322 322 321 319 315 312 309 306 304 304 304 304 304 304 304 304 305 306 314 312 313 312 314 314 314 314 314 312 312 313 314 315 315 316 316 316 318 318 316
324 324 324 325 324 323 318 314 315 318 319 318 315 312 308 305 304 304 304 304 303 303 303 304 306 315 315 314 313 316 314 315 315 315 314 313 313 314 316 316 316 317 317 317 318 318 317
318 318 317 317 318 317 310 310 311 313 317 318 312 306 304 304 304 304 303 303 304 306 309 313 314 312 313 313 315 314 314 313 315 315 315 314 313 315 316 316 316 316 317 318 319 318 317
313 315 315 317 316 311 308 308 309 311 310 312 309 305 304 304 303 303 302 309 315 319 317 315 316 314 314 313 313 312 313 312 313 314 315 315 316 316 316 317 318 317 317 317 316 316 317
309 309 309 309 311 310 307 306 306 307 305 304 304 304 304 303 302 302 301 312 313 311 308 308 310 311 311 311 311 311 313 311 313 314 314 315 315 317 316 316 316 315 315 315 314 315 316
309 310 309 310 308 307 307 306 305 305 304 303 305 305 304 302 301 300 303 314 312 309 309 308 309 309 310 310 310 311 313 313 312 313 314 315 316 316 315 315 315 314 314 314 315 315 315
310 308 309 309 308 307 306 306 306 306 305 304 304 305 303 300 302 310 311 312 309 308 311 311 311 310 310 310 311 310 310 311 313 312 313 313 314 315 314 314 313 313 313 314 314 314 314
310 309 308 308 309 307 306 306 305 305 304 303 302 304 302 299 311 309 311 311 306 309 313 312 311 312 314 311 313 311 312 312 312 313 312 313 314 313 312 312 313 313 313 313 313 313 313
308 309 307 308 309 307 306 305 305 304 302 302 300 303 302 301 306 310 309 306 305 314 313 311 313 311 313 312 313 312 313 312 312 312 313 313 313 313 312 312 312 312 312 312 313 314 315
307 308 308 308 309 307 306 305 304 304 302 300 301 303 302 306 308 307 303 305 311 316 308 310 312 313 314 314 313 312 312 312 310 311 312 311 311 312 312 311 312 312 312 315 316 316 316
304 307 308 308 309 307 306 305 304 303 302 301 303 303 302 305 307 304 307 309 311 307 307 310 311 312 313 313 313 312 311 311 311 311 310 309 310 311 313 312 312 311 313 316 314 314 313
302 304 306 307 307 307 305 305 304 303 302 300 303 302 304 304 306 305 309 312 304 305 306 307 309 309 311 311 310 310 310 310 309 310 310 310 310 311 311 311 310 310 312 311 312 313 314
302 302 304 306 306 306 305 305 304 303 302 300 302 304 305 306 305 308 310 307 305 306 306 308 308 309 310 310 309 308 308 308 309 309 309 309 310 310 311 311 311 310 311 312 315 314 314
301 302 303 304 306 306 305 304 304 303 301 300 304 305 306 305 306 308 312 308 307 306 305 306 306 307 307 307 308 308 307 307 307 308 308 308 309 309 310 310 310 311 312 312 313 314 315
300 300 302 303 305 306 305 304 303 303 301 299 303 306 306 305 307 308 310 308 306 307 305 306 306 306 306 306 306 306 306 306 307 308 308 309 310 314 311 311 312 311 311 311 314 313 316
297 299 301 302 304 305 305 304 303 303 301 301 303 304 305 305 308 309 307 308 307 306 305 304 304 304 305 305 309 307 306 306 306 307 309 309 311 309 311 312 311 310 309 311 313 313 313
294 297 299 301 302 304 305 304 303 303 301 301 302 304 305 305 305 306 307 307 307 305 305 304 304 305 305 305 306 307 304 305 306 306 306 307 307 309 314 311 309 308 309 310 313 316 315
293 295 297 299 302 304 304 304 304 303 301 302 303 304 303 304 305 306 307 306 306 306 304 304 304 304 305 307 305 306 306 306 307 306 306 307 308 308 307 307 308 309 309 310 311 312 313
293 293 294 297 300 302 302 302 303 302 300 301 302 303 303 302 303 305 307 306 306 306 305 304 304 304 305 304 306 305 306 306 306 307 307 308 312 309 308 308 308 309 310 310 309 309 309
293 293 293 295 297 300 301 303 303 302 300 301 302 302 303 304 305 305 306 305 305 304 304 304 305 304 305 305 306 307 307 307 307 307 307 309 311 310 311 310 309 311 310 311 309 309 310
292 292 293 293 295 299 302 300 301 302 299 301 302 302 302 305 304 305 304 304 304 304 304 304 304 304 304 305 306 306 306 306 306 307 307 308 309 310 312 310 311 310 308 308 308 309 311
291 291 292 292 294 296 300 300 301 301 299 300 301 302 303 305 303 304 304 304 303 303 303 304 304 304 305 306 307 307 306 306 306 308 308 309 309 310 311 311 309 308 308 308 311 312 312
292 291 292 293 294 295 299 303 300 300 298 300 302 302 303 304 304 303 303 302 304 304 305 303 303 303 304 307 307 305 305 305 306 310 309 309 310 310 310 311 310 308 310 310 310 312 309
292 292 294 293 294 295 298 301 302 300 299 299 302 302 303 303 303 303 303 304 303 303 304 304 305 305 305 307 308 307 307 306 308 307 309 311 311 312 312 310 308 308 311 311 311 312 310
292 293 294 295 295 298 300 301 300 300 299 299 301 301 302 302 302 302 302 302 303 304 306 305 306 306 306 308 308 307 308 309 310 309 310 312 312 311 311 309 310 309 311 311 312 310 309
294 294 295 295 298 299 300 300 299 300 300 299 300 301 300 302 302 302 302 302 302 302 303 304 305 305 306 306 307 309 309 310 311 313 310 312 311 311 310 311 311 310 311 310 310 310 309
Wind_Speed
31 31 30 26 26 23 22 21 19 20 21 22 22 24 25 25 24 23 23 23 23 23 23 24 23 22 22 11 11 11 12 14 6 9 10 12 16 12 11 10 11 14 12 12 8 9 9
31 32 27 26 28 27 28 21 22 22 22 23 22 23 23 23 23 22 22 22 23 23 22 22 22 21 13 13 6 10 11 8 9 9 10 8 10 14 14 15 11 15 11 17 17 15 13
31 25 28 28 32 31 24 23 25 25 24 24 22 21 21 23 23 23 22 21 22 21 22 21 20 18 16 23 9 14 12 12 9 10 9 8 8 8 14 15 10 9 13 15 18 19 14
23 26 27 31 27 26 23 21 23 25 25 23 23 23 23 22 22 22 22 22 21 21 21 19 19 14 11 12 12 12 12 14 13 11 11 9 9 12 15 13 17 16 15 15 16 19 14
23 24 26 27 28 23 10 17 21 23 25 24 24 24 23 23 22 22 21 20 20 20 20 16 16 6 11 7 7 3 4 5 7 11 9 8 8 12 13 11 12 14 13 15 12 13 10
15 16 13 13 12 12 17 17 23 27 25 26 26 24 23 22 21 21 19 18 17 18 12 9 10 8 12 6 2 7 6 6 7 9 11 10 7 10 11 10 12 15 16 12 8 8 12
23 26 25 23 25 21 19 20 23 29 26 28 27 25 22 20 19 17 16 12 12 4 5 10 5 11 7 5 11 13 8 8 10 11 13 14 9 12 16 16 11 12 13 16 17 19 20
16 17 20 21 25 24 19 21 24 27 28 26 23 21 21 19 16 13 10 6 7 6 11 18 25 26 22 15 12 12 8 7 13 12 14 13 14 17 16 13 10 11 16 18 19 18 17
16 17 18 16 14 12 13 15 18 19 26 22 20 18 20 16 12 11 6 9 6 5 9 15 18 17 14 14 18 15 13 11 15 13 14 17 15 3 8 12 14 15 15 17 20 19 18
21 20 19 19 17 15 14 15 18 20 22 20 18 18 16 7 4 3 7 7 6 4 5 7 7 4 7 6 6 16 14 13 10 13 14 14 16 13 10 16 13 17 14 13 15 13 13
22 22 21 22 20 19 18 17 17 18 18 16 15 16 13 10 5 1 3 5 4 2 5 8 8 5 4 9 3 5 4 8 14 11 5 8 4 6 7 10 9 10 13 12 13 14 15
27 25 23 24 24 22 20 18 17 15 14 14 14 15 11 7 12 5 10 8 3 3 8 5 7 8 9 11 5 2 3 3 3 10 14 15 20 14 9 10 10 11 11 15 14 12 13
28 28 25 25 28 23 22 19 16 13 11 12 11 11 9 8 4 11 7 6 3 6 2 4 5 8 12 9 10 8 8 7 6 4 9 15 18 17 18 11 12 12 9 5 5 8 12
28 28 26 27 25 24 23 21 19 14 10 10 12 11 8 10 8 8 11 5 8 6 13 5 3 3 9 4 8 10 9 10 13 14 11 11 13 14 15 13 12 13 14 9 16 12 14
28 28 30 29 29 27 25 23 21 15 11 9 12 10 9 11 10 15 9 7 7 9 5 3 3 6 8 10 2 7 11 13 13 5 7 6 10 3 3 5 9 10 12 16 15 15 13
28 30 30 31 30 29 27 25 22 17 12 9 13 10 12 11 12 12 9 12 10 3 2 4 10 11 11 13 10 7 8 4 6 6 6 9 12 13 14 12 15 15 13 11 8 12 16
29 30 30 30 31 31 29 27 24 20 14 9 13 6 5 14 13 14 10 12 17 5 2 4 7 8 10 12 9 9 7 5 3 10 7 10 11 13 15 14 14 12 14 14 14 8 12
27 29 31 31 31 33 32 31 28 24 18 15 11 3 12 19 13 14 13 16 9 6 7 5 5 5 5 6 7 11 11 12 7 6 11 10 5 7 17 17 18 16 17 16 8 15 10
34 28 31 31 32 34 36 35 32 29 26 18 7 7 8 18 8 11 16 20 18 8 11 9 7 6 5 4 3 6 9 13 11 8 4 7 5 9 12 14 19 16 15 13 15 13 18
32 33 30 35 33 35 38 37 35 34 29 23 11 3 8 15 19 15 16 18 19 10 16 14 6 8 6 6 6 4 7 8 6 9 8 5 10 13 11 14 15 17 19 18 14 5 8
30 33 33 31 38 36 39 40 40 38 33 28 13 6 9 5 10 16 18 12 18 12 12 12 10 11 9 4 9 13 14 14 11 12 13 8 15 15 18 19 18 20 22 21 20 17 13
30 32 34 34 34 40 37 39 43 40 36 33 11 6 15 13 22 19 14 11 15 17 11 14 12 10 11 14 10 6 10 13 11 6 10 12 16 15 18 16 19 22 18 17 22 22 22
31 32 35 35 34 35 40 41 44 42 44 24 24 18 6 12 14 13 13 16 12 9 11 13 8 11 8 7 10 9 9 11 10 11 12 14 12 10 18 15 19 18 11 16 22 21 20
34 35 35 37 37 36 36 36 47 47 50 21 26 15 13 6 10 14 17 18 14 11 14 7 11 9 10 6 5 11 14 16 18 19 22 17 15 9 12 15 19 9 15 20 20 20 16
36 35 36 37 38 37 36 32 52 51 50 31 23 22 12 8 14 13 17 10 16 16 12 13 11 9 2 5 3 8 10 15 22 23 21 18 14 7 7 11 18 23 20 17 5 10 21
36 35 35 36 38 39 35 40 43 49 52 35 25 21 10 5 9 14 13 16 10 10 11 18 15 11 10 4 2 6 6 12 9 6 19 19 16 12 10 7 9 8 4 20 2 8 8
34 34 34 37 38 36 40 44 48 52 51 43 26 22 12 6 4 6 9 8 6 9 6 12 15 16 18 4 6 8 13 16 15 19 11 10 13 14 11 10 10 14 12 15 7 2 5
33 33 32 34 34 33 35 38 55 55 51 50 28 23 14 6 7 9 7 10 9 9 8 2 3 8 2 5 3 7 8 9 11 16 15 7 9 7 8 8 12 12 7 2 4 3 4
29 31 31 33 35 34 39 43 49 48 47 47 28 22 22 9 5 9 13 13 13 9 4 5 5 2 3 2 3 4 4 4 9 4 5 6 10 7 8 3 13 11 5 6 1 3 3
Wind_Direction
260 260 259 255 262 263 259 266 270 278 286 290 297 302 306 306 306 308 309 310 310 313 315 321 327 336 338 326 289 316 296 308 337 314 307 318 310 325 288 327 302 276 282 308 292 274 276
257 259 251 260 258 256 244 259 267 276 283 287 295 302 305 306 306 306 306 307 308 310 311 317 320 326 331 286 298 302 301 303 301 293 299 309 321 318 293 275 273 306 294 284 283 271 250
258 256 260 256 258 246 246 258 262 272 276 283 291 298 303 305 304 304 304 304 305 306 306 311 314 324 297 266 263 294 287 286 276 281 289 300 303 301 312 300 331 277 276 273 261 238 245
250 251 249 252 237 239 247 262 278 274 277 281 291 299 302 302 302 303 304 305 304 303 300 306 308 315 268 277 269 276 286 278 264 265 274 285 287 279 269 275 287 267 264 268 259 222 208
229 230 233 233 241 239 244 289 280 275 278 285 291 294 297 298 298 301 302 304 303 301 298 300 305 276 276 288 267 256 299 274 272 259 263 281 296 265 277 251 276 247 252 266 270 172 161
246 240 230 230 237 241 288 292 299 291 281 282 290 292 291 291 295 298 303 304 307 296 292 303 259 271 263 254 247 271 267 268 255 259 268 252 253 251 242 244 257 276 296 287 287 197 202
257 258 260 260 276 277 276 285 290 292 283 283 282 281 283 286 289 293 302 319 303 287 242 233 265 247 286 273 293 275 255 266 247 245 254 252 245 248 253 263 315 313 292 289 292 301 305
256 256 259 267 272 273 275 271 274 276 287 280 272 271 273 278 283 287 287 267 324 296 293 263 262 261 262 271 279 264 229 247 232 240 246 243 246 262 286 309 318 298 289 285 287 283 278
262 257 262 260 260 267 274 276 278 281 271 274 264 262 267 276 285 280 246 281 286 308 262 279 261 247 257 250 253 258 219 243 255 258 251 257 263 315 294 293 291 280 281 285 288 298 299
257 256 253 252 253 261 269 276 282 285 287 269 252 248 260 278 299 339 261 233 292 302 276 229 176 218 211 223 254 240 258 258 241 255 265 272 276 282 305 286 282 278 284 324 316 312 286
252 253 248 245 247 254 260 269 277 282 290 261 249 242 256 207 177 293 256 270 272 33 283 107 131 146 168 207 22 164 217 245 243 245 224 243 240 251 257 268 300 297 318 307 298 289 291
248 251 249 241 244 248 253 262 267 276 290 269 247 236 242 228 220 249 247 256 133 237 241 178 139 181 176 205 228 135 191 233 285 255 267 263 280 290 273 277 283 298 287 280 267 262 260
248 246 246 239 240 243 247 254 249 261 289 275 227 213 223 198 217 229 189 148 213 227 56 182 219 188 204 177 198 204 187 197 219 223 244 246 243 249 240 252 263 246 258 276 261 249 259
247 243 242 237 240 241 244 244 238 245 264 277 214 215 214 206 237 200 160 195 227 266 243 46 353 217 220 185 225 208 240 240 228 246 275 280 282 264 203 205 269 278 233 237 280 300 304
247 246 240 237 237 238 238 235 230 239 247 252 211 223 221 216 206 174 200 228 211 228 297 185 178 211 224 234 315 213 249 257 268 251 240 290 283 110 107 266 275 269 261 261 275 276 280
249 247 245 239 237 233 233 228 226 229 228 240 203 220 231 207 193 182 219 232 225 236 306 250 217 205 211 215 195 237 242 298 283 291 313 281 285 280 297 265 244 247 274 292 284 282 271
248 245 244 242 236 231 227 223 221 218 212 210 209 233 221 194 188 199 222 225 229 190 238 264 247 251 246 266 269 222 259 276 224 276 218 284 281 275 276 248 256 279 231 239 261 273 280
250 243 242 238 234 228 224 220 216 211 199 187 206 248 191 171 198 221 230 226 270 234 204 245 281 280 263 269 274 262 272 278 6 310 298 277 294 279 267 283 292 281 277 282 272 272 268
248 250 240 238 234 232 222 216 212 206 197 181 202 222 198 182 216 228 234 232 243 237 219 224 226 227 237 253 303 343 279 286 311 313 358 349 280 265 264 246 240 250 264 286 293 283 274
247 247 246 237 233 234 227 221 208 204 199 185 192 198 213 205 237 245 221 237 223 213 262 239 236 247 219 239 224 220 266 267 251 279 69 343 270 270 278 298 308 297 291 288 269 266 301
253 250 245 240 234 231 229 225 209 202 194 186 195 220 186 197 228 242 256 224 230 211 214 245 236 231 223 216 254 259 258 260 258 243 265 268 264 273 276 285 291 290 290 295 298 286 259
252 250 245 241 239 236 237 225 212 199 191 198 183 203 181 235 209 216 240 242 236 225 195 225 233 235 224 239 196 259 243 236 256 267 259 258 263 259 268 273 270 271 262 256 266 274 277
252 250 246 241 240 240 238 226 210 200 189 199 206 211 227 230 184 205 221 226 240 228 239 222 248 238 255 254 286 305 318 293 264 275 274 272 267 273 271 273 279 267 250 241 255 263 266
253 250 245 244 238 238 235 235 211 199 193 189 198 202 225 242 213 203 208 227 212 232 248 223 240 260 264 317 316 293 274 265 258 253 250 251 261 265 275 280 269 270 265 263 265 270 249
251 249 245 246 242 237 240 232 214 199 190 188 198 201 208 226 222 229 201 209 219 218 229 258 239 232 266 27 300 269 257 249 245 242 235 232 246 260 253 256 278 280 280 292 252 292 303
246 245 244 245 243 237 233 210 198 194 186 191 194 194 194 209 225 218 202 211 214 217 221 226 230 253 264 131 223 249 255 283 257 198 222 216 220 231 255 270 273 313 28 301 249 239 54
244 240 240 237 241 240 237 222 217 193 188 195 197 193 198 209 203 219 216 226 221 261 249 255 242 225 220 177 221 245 251 258 259 265 254 200 204 223 229 251 266 284 131 251 264 59 120
236 231 238 235 229 227 214 183 194 186 187 197 200 199 190 197 210 220 221 223 220 236 239 315 222 196 92 204 209 238 254 260 275 263 260 212 197 207 228 243 260 254 154 232 113 116 110
225 231 231 225 219 219 216 205 190 183 189 197 206 216 201 212 232 222 224 230 251 261 287 251 279 37 67 218 246 301 280 314 294 268 262 211 219 219 213 221 1 351 42 106 145 171 155